Location: Goven Kar�
(15.2613°N, 12.6259°W)
Time: 01:20:49
(UTC+00:00)

Daily predictions for brighter satellites

Satellite Brightness Start Highest point End
(mag) Time Altitude Azimuth Time Altitude Azimuth Time Altitude Azimuth
Mugunghwa Rocket 4.5 04:31:09 61° N 04:31:09 61° N 04:37:33 10° ENE
Cosmos 2369 Rocket 4.4 04:41:23 12° S 04:41:23 12° S 04:41:52 10° S
Cosmos 1269 Rocket 4.5 04:42:16 31° SSE 04:44:37 59° ESE 04:49:49 10° NNE
Delta 2 Rocket 3.9 04:47:25 71° SW 04:47:33 72° SSW 04:54:35 10° ESE
CENTAUR R/B 3.8 04:52:33 22° N 04:52:33 22° N 04:54:54 10° N
Lacrosse 5 rocket 3.1 04:53:50 23° NE 04:53:50 23° NE 04:55:22 10° NE
Cosmos 1634 Rocket 4.5 04:45:48 10° N 04:52:01 60° E 04:58:10 10° SSE
Cosmos 1470 4.1 04:53:48 35° SE 04:53:48 35° SE 04:56:21 10° SSE
ALOS 3.4 04:49:23 10° NNE 04:53:47 42° E 04:58:11 10° S
Cosmos 1420 Rocket 3.9 04:54:30 68° NNE 04:55:08 80° ENE 05:00:18 10° SSE
H-2A R/B 2.8 04:53:59 10° SSE 04:58:22 53° ENE 05:01:47 16° N
Cosmos 304 Rocket 3.8 05:01:19 53° N 05:02:25 79° ENE 05:07:13 10° SSE
Cosmos 1484 Rocket 3.4 05:00:46 10° NNE 05:04:29 54° E 05:08:10 10° S
Cosmos 1833 Rocket 3.3 05:00:51 10° S 05:06:20 56° ESE 05:11:50 10° NNE
Cosmos 1758 3.6 05:06:21 33° NNE 05:08:00 65° E 05:11:58 10° SSE
Cosmos 1536 Rocket 3.5 05:04:40 10° S 05:09:05 85° E 05:13:32 10° N
Delta 7925 Rocket 4.4 05:08:33 42° WNW 05:11:21 83° NNE 05:20:16 10° ESE
In-Cosmos 22 3.9 05:07:50 10° SSW 05:13:02 63° W 05:18:15 10° N
Cosmos 1726 2.9 05:12:08 10° N 05:15:41 51° E 05:19:13 10° SSE
Cosmos 2082 Rocket 3.9 05:11:16 10° SSE 05:16:14 33° ESE 05:21:11 10° NE
Lacrosse 4 Rocket 2.7 05:20:55 24° N 05:20:55 24° N 05:22:47 10° N
Cosmos 1674 2.6 05:15:11 10° S 05:19:00 89° E 05:22:50 10° N
Cosmos 1455 Rocket 2.9 05:19:37 26° NNW 05:22:01 67° W 05:26:25 10° S
COSMOS 2406 3.1 05:16:43 10° SSW 05:22:21 69° WNW 05:27:58 10° N
GPS 2-04 Rocket1 3.1 05:24:13 40° SSW 05:24:13 40° SSW 05:27:16 10° SE
Meteor 1-31 Rocket 2.7 05:23:10 10° NNE 05:27:07 86° ESE 05:31:01 10° S
ATLAS 3B R/B 2.6 05:24:18 10° SSW 05:30:58 88° ESE 05:37:32 10° NNE
Chunghua 1 4.3 05:31:00 52° WNW 05:31:46 75° SW 05:35:25 10° SE
ISS -1.9 05:34:16 19° NNW 05:34:16 19° NNW 05:35:41 10° N
SEDSat Delta rocket 4.0 05:32:32 21° NNW 05:34:31 33° NNE 05:38:14 10° E
Cosmos 44 3.9 05:29:19 10° NNW 05:34:38 67° ENE 05:39:58 10° SSE
deb Chang Zheng 4 3.6 05:31:10 10° N 05:35:17 51° WNW 05:39:25 10° SSW
Meteor 2-10 4.0 05:30:14 10° NNW 05:35:27 65° W 05:40:53 10° S
Cosmos 1452 Rocket 3.5 05:31:58 10° NNW 05:37:10 62° WSW 05:42:21 10° S
Fermi 3.6 05:38:17 33° WNW 05:40:03 85° SSW 05:44:10 10° ESE
Cosmos 2251 Rocket 4.5 05:36:53 10° S 05:42:03 51° ESE 05:47:15 10° NNE
GPS 2-17 Rocket1 3.7 05:39:57 26° WNW 05:42:09 45° N 05:46:43 10° ENE
Delta 168 4.3 05:40:26 17° NNW 05:42:18 25° NNE 05:46:06 10° ENE
Cosmos 1626 2.3 05:41:08 10° S 05:44:48 71° E 05:48:27 10° N
CZ-3 R/B 3.6 05:27:24 21° W 05:45:18 51° NNW 05:53:04 10° NE
USA 290 4.2 05:44:08 10° SSE 05:47:00 31° ESE 05:49:52 10° NE
Nadezhda 4 Rocket 3.9 05:41:27 10° S 05:47:33 72° W 05:53:37 10° N
GP-B 4.0 05:44:20 10° SSW 05:48:00 25° W 05:51:39 10° NW
Cosmos 2180 Rocket 4.4 05:46:39 10° N 05:52:51 87° W 05:59:01 10° S
SL-14 R/B 3.2 05:54:31 10° S 05:58:23 89° W 06:02:19 10° N
Cosmos 1953 2.4 05:55:38 10° NNW 05:59:31 52° W 06:03:26 10° S
CZ-4B R/B 3.0 05:57:27 10° N 06:01:30 60° WNW 06:05:44 10° SSW
ADEOS Rocket 3.5 05:57:51 10° SSW 06:03:03 33° WSW 06:08:00 10° NW
Cosmos 2084 4.0 06:00:30 10° SSW 06:04:40 60° ESE 06:08:54 10° NE
CZ-4B R/B 1.6 06:06:15 10° S 06:09:32 48° W 06:12:52 10° NNW
Meteor PRIRODA 3.9 06:09:53 10° N 06:13:22 43° WNW 06:16:51 10° SSW
H-II Stage 2 4.3 06:14:22 10° SW 06:20:50 23° S 06:23:29 10° ESE
COSMO-SKYMED 1 2.8 06:18:03 10° SSE 06:22:22 76° E 06:26:42 10° N
Cosmos 1908 3.4 06:19:07 10° NNW 06:22:53 49° W 06:26:39 10° SSW
H-2A R/B 2.8 06:18:36 10° NNE 06:22:55 74° ESE 06:27:02 10° S
Cosmos 1331 Rocket 4.1 06:21:10 10° NNW 06:26:15 57° WSW 06:31:23 10° S
Meteor 1-24 Rocket 3.8 06:21:42 10° SSW 06:26:52 51° W 06:32:14 10° N
